Regional Weather Roundup
Issued by NWS

Home | Current Version | Previous Version | Graphics & Text | Print | Product List | Glossary On
Versions: 1 2 3 4 5 6 7 8 9 10 11 12 13 14 15 16 17 18 19 20 21 22 23 24 25 26 27 28 29 30 31 32 33 34 35 36 37 38 39 40 41 42 43 44 45 46 47 48 49 50
000
ASUS43 KIND 050059
RWRIN

WEATHER ROUNDUP FOR INDIANA
NATIONAL WEATHER SERVICE INDIANAPOLIS IN
900 PM EDT SAT JUL 04 2015

NOTE: "FAIR" INDICATES FEW OR NO CLOUDS BELOW 12,000 FEET WITH NO
SIGNIFICANT WEATHER AND/OR OBSTRUCTIONS TO VISIBILITY.

* - STATION DOES NOT REPORT WEATHER SUCH AS PRECIPITATION OR FOG.

+ - STATION NOT QUALITY CONTROLLED BY THE NATIONAL WEATHER SERVICE.
    USE DATA WITH CAUTION...ESPECIALLY DEWPOINT AND RELATIVE
    HUMIDITY OBSERVATIONS.

INZ001>003-010>013-019-020-050200-
NORTHWEST INDIANA

CITY           SKY/WX    TMP DP  RH WIND       PRES   REMARKS
GARY /AIRPORT/ CLEAR    N/A N/A N/A E5        29.99S
KNOX *+        CLEAR     73  57  56 CALM      29.99S
MONTICELLO +   CLEAR     73  64  71 CALM      30.00R
RENSSELAER +   CLEAR     72  66  83 CALM      30.00R

$$

LMZ046-743>745-050200-
SOUTHERN LAKE MICHIGAN

STATION/POSITION TIME  TEMP    WIND        PRES    WAVE
                       AIR SEA DIR/SP/G            HT
                 (UTC) (F)     (DEG/KT/KT) (MB)    (FT)
BURNS HARBOR     0000   71      70/  8/ 10 1015.9S
MICHIGAN CITY    0000   70      40/ 10/ 10   N/A
5NW MICH CITY    0000   67 65   90/  6/  6   N/A     1

$$

INZ004-005-014>016-021>024-050200-
NORTH CENTRAL INDIANA

CITY           SKY/WX    TMP DP  RH WIND       PRES   REMARKS
GOSHEN         CLEAR     72  62  71 W3        30.01R
SOUTH BEND     CLEAR     73  56  54 N3        30.01R
WARSAW +         N/A     70  61  73 CALM      30.02R

$$

INZ006>009-017-018-025>027-050200-
NORTHEAST INDIANA

CITY           SKY/WX    TMP DP  RH WIND       PRES   REMARKS
ANGOLA *+        N/A     73  64  73 CALM      30.01R
FORT WAYNE     CLEAR     71  63  75 CALM      30.02R

$$

INZ028-029-035-036-043>045-051>053-050200-
WEST CENTRAL INDIANA

CITY           SKY/WX    TMP DP  RH WIND       PRES   REMARKS
CRAWFORDSVL +  CLEAR     69  63  80 CALM      30.02R
GREENCASTLE +  PTCLDY    73  57  56 CALM      30.03R
LAFAYETTE      PTCLDY    73  63  70 CALM      30.00R
TERRE HAUTE    PTCLDY    74  66  76 N5        30.00R

$$

INZ030>032-037>040-046>048-054>057-064-065-050200-
CENTRAL INDIANA

CITY           SKY/WX    TMP DP  RH WIND       PRES   REMARKS
FRANKFORT +    CLEAR     72  64  75 NE3       30.04R
GREENWOOD *+   MOCLDY    77  57  50 E3        30.02R
INDIANAPOLIS   MOCLDY    76  57  51 NW7       30.00R
-EAGLE CREEK   PTCLDY    75  62  64 NW5       30.01R
KOKOMO *+      CLEAR     73  63  68 CALM      30.01R
MT COMFORT *+  PTCLDY    73  59  60 CALM      30.02R
SHELBYVILLE    MOCLDY    75  66  73 E3        30.00R

$$

INZ033-034-041-042-049-050-058-059-050200-
EAST CENTRAL INDIANA

CITY           SKY/WX    TMP DP  RH WIND       PRES   REMARKS
MUNCIE         PTCLDY    72  61  68 N5        30.02R

$$

INZ060-061-067>069-081>083-085>088-050200-
SOUTHWEST INDIANA

CITY           SKY/WX    TMP DP  RH WIND       PRES   REMARKS
EVANSVILLE     CLOUDY    76  69  79 N5        29.99R HAZE
HUNTINGBURG *+ CLOUDY    73  68  83 N3        29.99R

$$

INZ062-063-066-070>080-084-089>092-050200-
SOUTH CENTRAL AND SOUTHEAST INDIANA

CITY           SKY/WX    TMP DP  RH WIND       PRES   REMARKS
BLOOMINGTON    MOCLDY    76  66  71 NE3       30.01R
MADISON *+     MOCLDY    75  64  69 CALM      30.03R
SEYMOUR +      MOCLDY    73  68  83 NE5       30.00R

$$



USA.gov is the U.S. government's official web portal to all federal, state and local government web resources and services.